EWG32A EDDW-EDDS

Flight info

Callsign EWG32A
Flight time 0h 51m
Altitude 35000
Route NIE2M/09 NIE Z88 SAS DCT BERXO DCT SILWE DCT OSBIT P605 TOSTU T726 LBU
Aircraft A319/M-SDE3FGHIRWY/LB1

Departure

Time 2026-05-06 15:26
Airport Bremen Airport (EDDW)

Arrival

Time 2026-05-06 16:17
Airport Stuttgart Airport (EDDS)
Time Latitude Longitude Altitude Speed Heading
2026-05-06 15:02 53.05140 8.78602 22 ft 0 kts 47°
2026-05-06 15:18 53.05126 8.78578 26 ft 4 kts 44°
2026-05-06 15:18 53.05106 8.78549 23 ft 4 kts 35°
2026-05-06 15:18 53.05083 8.78528 24 ft 4 kts
2026-05-06 15:18 53.05064 8.78532 24 ft 1 kts 319°
2026-05-06 15:19 53.05061 8.78537 22 ft 0 kts 319°
2026-05-06 15:22 53.05069 8.78524 24 ft 4 kts 319°
2026-05-06 15:22 53.05095 8.78487 22 ft 5 kts 319°
2026-05-06 15:22 53.05122 8.78447 22 ft 5 kts 314°
2026-05-06 15:22 53.05148 8.78391 22 ft 7 kts 303°
2026-05-06 15:23 53.05170 8.78312 23 ft 9 kts 288°
2026-05-06 15:23 53.05193 8.78175 24 ft 14 kts 283°
2026-05-06 15:23 53.05172 8.78016 24 ft 14 kts 240°
2026-05-06 15:23 53.05115 8.77890 22 ft 13 kts 227°
2026-05-06 15:24 53.05054 8.77779 22 ft 13 kts 228°
2026-05-06 15:24 53.04997 8.77674 22 ft 12 kts 227°
2026-05-06 15:24 53.04937 8.77568 22 ft 15 kts 224°
2026-05-06 15:24 53.04828 8.77470 22 ft 20 kts 198°
2026-05-06 15:25 53.04714 8.77459 23 ft 15 kts 165°
2026-05-06 15:25 53.04659 8.77586 21 ft 5 kts 89°
2026-05-06 15:25 53.04659 8.77599 21 ft 0 kts 89°
2026-05-06 15:25 53.04664 8.77801 21 ft 48 kts 88°
2026-05-06 15:26 53.04685 8.78714 23 ft 109 kts 88°
2026-05-06 15:26 53.04726 8.80221 323 ft 135 kts 84°
2026-05-06 15:26 53.04761 8.81758 1119 ft 132 kts 84°
2026-05-06 15:26 53.04800 8.83375 1633 ft 150 kts 82°
2026-05-06 15:27 53.04851 8.85228 2127 ft 171 kts 84°
2026-05-06 15:27 53.04431 8.87244 2591 ft 207 kts 121°
2026-05-06 15:27 53.03361 8.89120 3081 ft 241 kts 132°
2026-05-06 15:27 53.01998 8.90946 4012 ft 258 kts 139°
2026-05-06 15:28 53.00539 8.92728 5207 ft 263 kts 141°
2026-05-06 15:28 52.99045 8.94502 6377 ft 266 kts 141°
2026-05-06 15:28 52.97522 8.96293 7426 ft 270 kts 142°
2026-05-06 15:28 52.95971 8.98117 8455 ft 275 kts 142°
2026-05-06 15:29 52.94414 8.99947 9445 ft 281 kts 142°
2026-05-06 15:29 52.92800 9.01841 10251 ft 292 kts 143°
2026-05-06 15:29 52.91076 9.03872 10708 ft 313 kts 142°
2026-05-06 15:29 52.89280 9.05990 11494 ft 320 kts 144°
2026-05-06 15:30 52.87455 9.08138 12387 ft 323 kts 144°
2026-05-06 15:30 52.85606 9.10308 13254 ft 329 kts 145°
2026-05-06 15:30 52.84364 9.11763 13787 ft 332 kts 147°
2026-05-06 15:30 52.82470 9.13980 14598 ft 335 kts 147°
2026-05-06 15:31 52.80554 9.16226 15376 ft 339 kts 147°
2026-05-06 15:31 52.78620 9.18490 16077 ft 343 kts 147°
2026-05-06 15:31 52.76666 9.20783 16779 ft 346 kts 147°
2026-05-06 15:32 52.72688 9.25440 18190 ft 354 kts 147°
2026-05-06 15:32 52.70664 9.27801 18789 ft 358 kts 147°
2026-05-06 15:32 52.68625 9.30179 19400 ft 361 kts 147°
2026-05-06 15:32 52.66561 9.32578 20019 ft 364 kts 147°
2026-05-06 15:33 52.64477 9.34999 20641 ft 367 kts 147°
2026-05-06 15:33 52.62388 9.37443 21239 ft 371 kts 146°
2026-05-06 15:33 52.60324 9.40062 21818 ft 376 kts 143°
2026-05-06 15:33 52.58329 9.42785 22419 ft 380 kts 141°
2026-05-06 15:34 52.56317 9.45631 23040 ft 384 kts 141°
2026-05-06 15:34 52.54292 9.48515 23634 ft 387 kts 141°
2026-05-06 15:34 52.52245 9.51407 24188 ft 390 kts 141°
2026-05-06 15:34 52.50165 9.54308 24724 ft 393 kts 141°
2026-05-06 15:35 52.48063 9.57203 25260 ft 396 kts 142°
2026-05-06 15:35 52.45930 9.60113 25793 ft 400 kts 142°
2026-05-06 15:35 52.43780 9.63038 26327 ft 403 kts 142°
2026-05-06 15:35 52.41616 9.65985 26846 ft 406 kts 142°
2026-05-06 15:36 52.39433 9.68952 27359 ft 409 kts 142°
2026-05-06 15:36 52.37238 9.71935 27856 ft 412 kts 142°
2026-05-06 15:36 52.35024 9.74944 28330 ft 416 kts 142°
2026-05-06 15:36 52.32785 9.77986 28797 ft 420 kts 142°
2026-05-06 15:37 52.30530 9.81047 29293 ft 423 kts 142°
2026-05-06 15:37 52.28174 9.83950 29780 ft 424 kts 150°
2026-05-06 15:37 52.25562 9.86182 30213 ft 425 kts 160°
2026-05-06 15:37 52.22755 9.87672 30626 ft 425 kts 169°
2026-05-06 15:38 52.19835 9.88369 31045 ft 424 kts 179°
2026-05-06 15:38 52.16883 9.88406 31464 ft 425 kts 182°
2026-05-06 15:38 52.13977 9.88387 32036 ft 422 kts 182°
2026-05-06 15:38 52.11050 9.88377 32669 ft 419 kts 182°
2026-05-06 15:39 52.08140 9.88373 33292 ft 416 kts 182°
2026-05-06 15:39 52.05252 9.88375 33877 ft 414 kts 182°
2026-05-06 15:39 52.02374 9.88375 34185 ft 413 kts 182°
2026-05-06 15:39 51.99504 9.88377 34421 ft 412 kts 182°
2026-05-06 15:40 51.96631 9.88374 34662 ft 412 kts 182°
2026-05-06 15:40 51.93767 9.88370 34782 ft 411 kts 182°
2026-05-06 15:40 51.88199 9.88358 34811 ft 394 kts 183°
2026-05-06 15:41 51.82769 9.88337 34807 ft 388 kts 183°
2026-05-06 15:41 51.77379 9.88328 34810 ft 387 kts 183°
2026-05-06 15:42 51.71999 9.88320 34804 ft 387 kts 183°
2026-05-06 15:42 51.66620 9.88307 34790 ft 386 kts 183°
2026-05-06 15:43 51.61246 9.88295 34781 ft 386 kts 182°
2026-05-06 15:43 51.55877 9.88288 34778 ft 386 kts 183°
2026-05-06 15:44 51.50548 9.88273 34779 ft 385 kts 183°
2026-05-06 15:44 51.45186 9.88259 34777 ft 385 kts 182°
2026-05-06 15:45 51.39822 9.88255 34776 ft 385 kts 183°
2026-05-06 15:45 51.34461 9.88248 34762 ft 385 kts 183°
2026-05-06 15:46 51.29093 9.88239 34756 ft 386 kts 183°
2026-05-06 15:46 51.23733 9.88226 34749 ft 386 kts 182°
2026-05-06 15:47 51.18368 9.88027 34756 ft 385 kts 185°
2026-05-06 15:47 51.13056 9.87490 34754 ft 384 kts 186°
2026-05-06 15:48 51.07721 9.86926 34763 ft 383 kts 186°
2026-05-06 15:48 51.02397 9.86436 34757 ft 383 kts 186°
2026-05-06 15:49 50.97082 9.85985 34753 ft 382 kts 185°
2026-05-06 15:49 50.91773 9.85537 34750 ft 382 kts 185°
2026-05-06 15:50 50.86473 9.85081 34751 ft 381 kts 185°
2026-05-06 15:50 50.81179 9.84620 34751 ft 381 kts 185°
2026-05-06 15:51 50.75930 9.84169 34748 ft 380 kts 185°
2026-05-06 15:51 50.70651 9.83719 34743 ft 380 kts 185°
2026-05-06 15:52 50.65374 9.83260 34723 ft 380 kts 185°
2026-05-06 15:52 50.60085 9.82800 34434 ft 381 kts 185°
2026-05-06 15:53 50.57434 9.82567 34201 ft 381 kts 185°
2026-05-06 15:53 50.54786 9.82337 33968 ft 381 kts 185°
2026-05-06 15:53 50.52144 9.82112 33719 ft 381 kts 185°
2026-05-06 15:53 50.49495 9.81893 33451 ft 381 kts 185°
2026-05-06 15:54 50.46844 9.81673 33174 ft 381 kts 185°
2026-05-06 15:54 50.44189 9.81449 32895 ft 382 kts 186°
2026-05-06 15:54 50.41571 9.81226 32629 ft 382 kts 186°
2026-05-06 15:54 50.38921 9.80998 32362 ft 382 kts 186°
2026-05-06 15:55 50.36268 9.80772 32097 ft 381 kts 185°
2026-05-06 15:55 50.33621 9.80549 31834 ft 380 kts 185°
2026-05-06 15:55 50.30990 9.80331 31574 ft 379 kts 185°
2026-05-06 15:55 50.28358 9.80113 31311 ft 377 kts 185°
2026-05-06 15:56 50.25744 9.79894 31061 ft 376 kts 185°
2026-05-06 15:56 50.23137 9.79672 30807 ft 374 kts 185°
2026-05-06 15:56 50.20546 9.79449 30557 ft 372 kts 185°
2026-05-06 15:56 50.17949 9.79171 29853 ft 380 kts 187°
2026-05-06 15:57 50.15301 9.78759 29297 ft 382 kts 188°
2026-05-06 15:57 50.12670 9.78283 28901 ft 380 kts 188°
2026-05-06 15:57 50.10046 9.77782 28512 ft 379 kts 188°
2026-05-06 15:57 50.07430 9.77287 28109 ft 378 kts 188°
2026-05-06 15:58 50.04819 9.76808 27721 ft 378 kts 188°
2026-05-06 15:58 50.02210 9.76348 27323 ft 377 kts 188°
2026-05-06 15:58 49.99602 9.75901 26928 ft 376 kts 187°
2026-05-06 15:58 49.97000 9.75460 26530 ft 376 kts 187°
2026-05-06 15:59 49.94406 9.75020 26124 ft 375 kts 188°
2026-05-06 15:59 49.91815 9.74580 25721 ft 374 kts 188°
2026-05-06 15:59 49.89263 9.74146 25297 ft 374 kts 187°
2026-05-06 15:59 49.86677 9.73707 24864 ft 374 kts 187°
2026-05-06 16:00 49.84092 9.73268 24509 ft 372 kts 188°
2026-05-06 16:00 49.81523 9.72830 24057 ft 374 kts 188°
2026-05-06 16:00 49.78955 9.72393 23824 ft 368 kts 188°
2026-05-06 16:00 49.76415 9.71960 23424 ft 367 kts 188°
2026-05-06 16:01 49.73913 9.71531 22984 ft 366 kts 188°
2026-05-06 16:01 49.71385 9.71096 22534 ft 364 kts 188°
2026-05-06 16:01 49.68885 9.70672 21946 ft 360 kts 188°
2026-05-06 16:01 49.66406 9.70254 21380 ft 357 kts 188°
2026-05-06 16:02 49.64028 9.69853 20829 ft 353 kts 188°
2026-05-06 16:02 49.61610 9.69442 20387 ft 347 kts 188°
2026-05-06 16:02 49.59238 9.69041 19947 ft 340 kts 188°
2026-05-06 16:02 49.56909 9.68651 19530 ft 334 kts 187°
2026-05-06 16:03 49.54613 9.68269 19117 ft 329 kts 187°
2026-05-06 16:03 49.52357 9.67892 18705 ft 324 kts 187°
2026-05-06 16:03 49.50132 9.67518 18296 ft 320 kts 187°
2026-05-06 16:03 49.47947 9.67152 17868 ft 316 kts 187°
2026-05-06 16:04 49.45784 9.66788 17452 ft 311 kts 187°
2026-05-06 16:04 49.43647 9.66429 16969 ft 309 kts 187°
2026-05-06 16:04 49.41512 9.66066 16452 ft 308 kts 187°
2026-05-06 16:04 49.39383 9.65708 15976 ft 307 kts 187°
2026-05-06 16:05 49.37266 9.65359 15534 ft 305 kts 187°
2026-05-06 16:05 49.35185 9.65016 15113 ft 304 kts 187°
2026-05-06 16:05 49.33091 9.64666 14689 ft 302 kts 187°
2026-05-06 16:05 49.31058 9.64324 14286 ft 300 kts 187°
2026-05-06 16:06 49.28986 9.63980 13887 ft 299 kts 187°
2026-05-06 16:06 49.26923 9.63640 13464 ft 297 kts 187°
2026-05-06 16:06 49.24872 9.63301 13010 ft 296 kts 187°
2026-05-06 16:06 49.22834 9.62963 12568 ft 294 kts 187°
2026-05-06 16:07 49.20804 9.62625 12127 ft 292 kts 187°
2026-05-06 16:07 49.18783 9.62291 11707 ft 291 kts 187°
2026-05-06 16:07 49.16775 9.61956 11352 ft 290 kts 187°
2026-05-06 16:07 49.14768 9.61620 11072 ft 289 kts 187°
2026-05-06 16:08 49.12790 9.61289 10851 ft 286 kts 188°
2026-05-06 16:08 49.10800 9.60960 10592 ft 285 kts 187°
2026-05-06 16:08 49.08830 9.60639 10317 ft 285 kts 187°
2026-05-06 16:08 49.06860 9.60317 10019 ft 285 kts 188°
2026-05-06 16:09 49.04896 9.59994 9754 ft 283 kts 188°
2026-05-06 16:09 49.02948 9.59672 9238 ft 281 kts 187°
2026-05-06 16:09 49.01012 9.59350 8674 ft 279 kts 188°
2026-05-06 16:09 48.99089 9.59032 8149 ft 278 kts 188°
2026-05-06 16:10 48.97161 9.58713 7792 ft 278 kts 188°
2026-05-06 16:10 48.95245 9.58398 7497 ft 277 kts 188°
2026-05-06 16:10 48.93333 9.58083 7220 ft 276 kts 188°
2026-05-06 16:10 48.91450 9.57774 6951 ft 276 kts 188°
2026-05-06 16:11 48.89545 9.57459 6676 ft 275 kts 188°
2026-05-06 16:11 48.87646 9.57145 6408 ft 274 kts 189°
2026-05-06 16:11 48.85757 9.56816 6125 ft 273 kts 189°
2026-05-06 16:11 48.83866 9.56487 5790 ft 274 kts 189°
2026-05-06 16:12 48.82013 9.55886 5506 ft 270 kts 200°
2026-05-06 16:12 48.80252 9.54938 5251 ft 267 kts 203°
2026-05-06 16:12 48.78523 9.53954 4995 ft 262 kts 203°
2026-05-06 16:12 48.76931 9.52745 4740 ft 254 kts 212°
2026-05-06 16:13 48.75448 9.51359 4492 ft 246 kts 219°
2026-05-06 16:13 48.74312 9.49505 4235 ft 238 kts 239°
2026-05-06 16:13 48.73689 9.47210 4045 ft 233 kts 255°
2026-05-06 16:13 48.73258 9.44893 3929 ft 224 kts 254°
2026-05-06 16:14 48.72838 9.42652 3690 ft 218 kts 254°
2026-05-06 16:14 48.72429 9.40473 3421 ft 211 kts 254°
2026-05-06 16:14 48.72046 9.38426 3146 ft 198 kts 254°
2026-05-06 16:14 48.71682 9.36487 2907 ft 185 kts 253°
2026-05-06 16:15 48.71344 9.34693 2660 ft 169 kts 253°
2026-05-06 16:15 48.71040 9.33076 2444 ft 151 kts 253°
2026-05-06 16:15 48.70763 9.31603 2243 ft 141 kts 253°
2026-05-06 16:15 48.70497 9.30191 2027 ft 138 kts 252°
2026-05-06 16:16 48.70234 9.28794 1835 ft 138 kts 255°
2026-05-06 16:16 48.69969 9.27393 1643 ft 138 kts 253°
2026-05-06 16:16 48.69708 9.26023 1449 ft 133 kts 252°
2026-05-06 16:16 48.69460 9.24690 1289 ft 131 kts 253°
2026-05-06 16:17 48.69214 9.23406 1212 ft 116 kts 254°
2026-05-06 16:17 48.69030 9.22414 1230 ft 76 kts 254°
2026-05-06 16:17 48.68909 9.21778 1249 ft 54 kts 254°
2026-05-06 16:17 48.68818 9.21208 1259 ft 46 kts 266°
2026-05-06 16:18 48.68855 9.20872 1273 ft 19 kts 284°
2026-05-06 16:18 48.68874 9.20769 1273 ft 4 kts 286°
2026-05-06 16:18 48.68879 9.20742 1276 ft 4 kts 284°
2026-05-06 16:18 48.68877 9.20686 1276 ft 8 kts 256°
2026-05-06 16:19 48.68854 9.20572 1279 ft 16 kts 254°
2026-05-06 16:19 48.68819 9.20379 1283 ft 23 kts 254°
2026-05-06 16:19 48.68768 9.20112 1289 ft 30 kts 253°
2026-05-06 16:19 48.68762 9.19861 1297 ft 25 kts 258°
2026-05-06 16:20 48.68707 9.19580 1304 ft 21 kts 254°
2026-05-06 16:20 48.68664 9.19356 1310 ft 15 kts 253°
2026-05-06 16:20 48.68646 9.19260 1313 ft 14 kts 254°
2026-05-06 16:20 48.68684 9.19159 1317 ft 12 kts 342°
2026-05-06 16:21 48.68759 9.19160 1318 ft 11 kts 46°
2026-05-06 16:21 48.68781 9.19249 1315 ft 4 kts 74°
2026-05-06 16:21 48.68784 9.19265 1315 ft 0 kts 75°
2026-05-06 16:22 48.68786 9.19276 1315 ft 2 kts 76°
2026-05-06 16:22 48.68795 9.19308 1315 ft 4 kts 58°
2026-05-06 16:23 48.68819 9.19318 1315 ft 3 kts 345°
2026-05-06 16:23 48.68837 9.19305 1315 ft 4 kts 336°
2026-05-06 16:23 48.68867 9.19290 1316 ft 3 kts 343°
2026-05-06 16:23 48.68871 9.19288 1316 ft 0 kts 343°